This demonstration page uses our WeatherBlox Daily Observations layout. Learn more.

Left ArrowRight Arrow

Hourly Observations for May 5, 2020

Temp ( °F °C ) Dew Point ( °F °C ) Humidity (%) Winds ( mph kmh ) Pressure ( in mb ) Visibility ( mi km ) Precip ( " mm )
12:54 am 00:54 Mostly Cloudy 50 10 46 7.8 86 86 NNW 6 9 30.03 1017 10 16.0934 0.001 0.001
1:54 am 01:54 Cloudy 50 10 47 8.3 89 89 W 5 7 30.03 1017 10 16.0934 0 0
2:54 am 02:54 Clear 50 10 45 7.2 83 83 WNW 8 13 30.01 1016 10 16.0934 0 0
3:54 am 03:54 Clear 50 10 42 5.6 74 74 WNW 7 11 30.01 1016 10 16.0934 0 0
4:54 am 04:54 Clear 50 10 42 5.6 74 74 W 9 15 30.02 1017 10 16.0934 0 0
5:54 am 05:54 Clear 49 9.4 40 4.4 71 71 WNW 12 19 30.02 1017 10 16.0934 0 0
6:54 am 06:54 Sunny 49 9.4 40 4.4 71 71 WNW 16 26 30.03 1017 10 16.0934 0 0
8:54 am 08:54 Sunny 56 13.3 40 4.4 55 55 WNW 22 35 30.04 1017 10 16.0934 0 0
9:54 am 09:54 Sunny 60 15.6 41 5 50 50 NW 24 39 30.04 1017 10 16.0934 0 0
10:54 am 10:54 Sunny 63 17.2 37 2.8 38 38 NNW 31 50 30.03 1017 10 16.0934 0 0
11:54 am 11:54 Sunny 66 18.9 34 1.1 30 30 NW 33 54 30.04 1017 10 16.0934 0 0
12:54 pm 12:54 Mostly Sunny 68 20 33 0.6 27 27 NNW 29 46 30.04 1017 10 16.0934 0 0
1:54 pm 13:54 Mostly Sunny 69 20.6 33 0.6 26 26 NW 29 46 30.04 1017 10 16.0934 0 0
2:54 pm 14:54 Sunny 68 20 34 1.1 28 28 NW 25 41 30.05 1018 10 16.0934 0 0
3:54 pm 15:54 Sunny 68 20 33 0.6 27 27 NNW 30 48 30.06 1018 10 16.0934 0 0
4:54 pm 16:54 Mostly Sunny 68 20 33 0.6 27 27 NNW 32 52 30.06 1018 10 16.0934 0 0
5:54 pm 17:54 Sunny 67 19.4 33 0.6 28 28 N 30 48 30.08 1019 10 16.0934 0 0
6:54 pm 18:54 Sunny 64 17.8 34 1.1 33 33 N 23 37 30.1 1019 10 16.0934 0 0
7:54 pm 19:54 Sunny 60 15.6 37 2.8 42 42 N 15 24 30.13 1020 10 16.0934 0 0
8:54 pm 20:54 Clear 55 12.8 37 2.8 51 51 NNE 14 22 30.15 1021 10 16.0934 0 0
9:54 pm 21:54 Mostly Cloudy 51 10.6 40 4.4 66 66 N 5 7 30.17 1022 10 16.0934 0 0
10:54 pm 22:54 Cloudy 51 10.6 41 5 69 69 N 5 7 30.18 1022 10 16.0934 0 0
11:54 pm 23:54 Mostly Cloudy 47 8.3 41 5 80 80 N 8 13 30.19 1022 10 16.0934 0 0

Powered by AerisWeather